This is the latest recevied weather packets stored in our database for station/object DM4XI-13. If no packets are shown the sender has not sent any weather packets the latest 10 day(s).
| Time | Temp. | Humidity | Pressure | Rain* | Wind** | Luminosity | Snow |
|---|---|---|---|---|---|---|---|
| 1778148146 | 12.78° C | 76% | 1010.5 hPa | 0 mm | 0.89 m/s, 265° | 256 W/m² | - |
| 1778148086 | 12.78° C | 76% | 1010.8 hPa | 0 mm | 0.89 m/s, 255° | 238 W/m² | - |
| 1778148025 | 12.78° C | 76% | 1010.7 hPa | 0 mm | 1.79 m/s, 295° | 219 W/m² | - |
| 1778147964 | 12.78° C | 76% | 1010.8 hPa | 0 mm | 0.45 m/s, 235° | 199 W/m² | - |
| 1778147903 | 12.78° C | 75% | 1010.7 hPa | 0 mm | 1.34 m/s, 241° | 181 W/m² | - |
| 1778147842 | 12.78° C | 76% | 1010.6 hPa | 0 mm | 0.89 m/s, 258° | 174 W/m² | - |
| 1778147781 | 12.78° C | 75% | 1010.6 hPa | 0 mm | 0.45 m/s, 214° | 171 W/m² | - |
| 1778147720 | 12.78° C | 74% | 1010.8 hPa | 0 mm | 2.24 m/s, 274° | 171 W/m² | - |
| 1778147659 | 12.78° C | 77% | 1010.8 hPa | 0 mm | 0.45 m/s, 232° | 170 W/m² | - |
| 1778147598 | 12.78° C | 77% | 1010.8 hPa | 0 mm | 0.89 m/s, 271° | 171 W/m² | - |
| 1778147537 | 12.78° C | 77% | 1010.8 hPa | 0 mm | 1.79 m/s, 235° | 171 W/m² | - |
| 1778147476 | 12.78° C | 78% | 1010.7 hPa | 0 mm | 0.89 m/s, 149° | 172 W/m² | - |
| 1778147415 | 12.78° C | 78% | 1010.6 hPa | 0 mm | 0.45 m/s, 182° | 180 W/m² | - |
| 1778147354 | 12.78° C | 77% | 1010.6 hPa | 0 mm | 0.89 m/s, 265° | 190 W/m² | - |
| 1778147293 | 12.78° C | 76% | 1010.7 hPa | 0 mm | 1.34 m/s, 295° | 208 W/m² | - |
| 1778147232 | 12.78° C | 77% | 1010.6 hPa | 0 mm | 2.24 m/s, 175° | 232 W/m² | - |
| 1778147171 | 12.78° C | 77% | 1010.8 hPa | 0 mm | 0.45 m/s, 166° | 264 W/m² | - |
| 1778147110 | 12.78° C | 78% | 1010.6 hPa | 0 mm | 1.79 m/s, 182° | 341 W/m² | - |
| 1778147050 | 12.78° C | 79% | 1010.6 hPa | 0 mm | 1.79 m/s, 192° | 296 W/m² | - |
| 1778146988 | 12.22° C | 80% | 1010.6 hPa | 0 mm | 0.89 m/s, 226° | 265 W/m² | - |
| 1778146927 | 12.22° C | 81% | 1010.6 hPa | 0 mm | 0.45 m/s, 229° | 242 W/m² | - |
| 1778146866 | 12.22° C | 80% | 1010.7 hPa | 0 mm | 0.89 m/s, 230° | 226 W/m² | - |
| 1778146805 | 12.78° C | 80% | 1010.6 hPa | 0 mm | 0.89 m/s, 177° | 205 W/m² | - |
| 1778146744 | 12.78° C | 79% | 1010.6 hPa | 0 mm | 0.45 m/s, 193° | 187 W/m² | - |
| 1778146683 | 12.78° C | 79% | 1010.5 hPa | 0 mm | 2.24 m/s, 231° | 170 W/m² | - |
* Rain latest hour (hover to see other rain measurements)
** Current wind speed in m/s (hover to see current wind gust speed)